Weather History for Vero Beach, FL

Change the Weather History Date:

Saturday, January 19, 2013

  Actual Average Record
Temperature  
Mean Temperature 70 °F 62 °F  
Max Temperature 75 °F 72 °F 88 °F (1943)
Min Temperature 64 °F 52 °F 29 °F (1977)
Degree Days  
Heating Degree Days 0 5  
Month to date heating degree days 7 95  
Since 1 July heating degree days 120 230  
Cooling Degree Days 5 2  
Month to date cooling degree days 104 38  
Year to date cooling degree days 104 38  
Growing Degree Days 18 (Base 50)    
Moisture  
Dew Point 63 °F    
Average Humidity 81    
Maximum Humidity 93    
Minimum Humidity 68    
Precipitation  
Precipitation 0.37 in 0.08 in 0.88 in (1954)
Month to date precipitation 1.10 1.52  
Year to date precipitation 1.10 1.52  
Sea Level Pressure  
Sea Level Pressure 30.18 in    
Wind  
Wind Speed 8 mph (NE)    
Max Wind Speed 18 mph    
Max Gust Speed 24 mph    
Visibility 7 miles    
Events Rain    
T = Trace of Precipitation, MM = Missing Value Source: NWS Daily Summary

Daily Weather History Graph

Daily Weather History Graph

Search for Another Location

Airport:

Trip Planner

Search our weather history database for the weather conditions in past years. The results will help you decide how hot, cold, wet, or windy it might be!

Date:

Astronomy

Jan. 19, 2013 Rise Set
Actual Time 7:12 AM EST 5:52 PM EST
Civil Twilight 6:47 AM EST 6:17 PM EST
Nautical Twilight 6:19 AM EST 6:45 PM EST
Astronomical Twilight 5:51 AM EST 7:13 PM EST
Moon 12:11 PM EST (1/19) 12:53 AM EST (1/19)
Length of Visible Light 11h 29m
Length of Day
10h 39m
First Quarter, 57% of the Moon is Illuminated
Jan 19
First Quarter
Jan 26
Full
Feb 3
Last Quarter
Feb 10
New
Feb 17
First Quarter

Hourly Weather History & Observations

Time (EST) Temp. Dew Point Humidity Pressure Visibility Wind Dir Wind Speed Gust Speed Precip Events Conditions
12:44 AM 64.4 °F 59.0 °F 83% 30.22 in 2.5 mi East 11.5 mph 20.7 mph 0.03 in Rain Heavy Rain
12:49 AM 64.4 °F 59.0 °F 83% 30.22 in 3.0 mi East 6.9 mph - 0.07 in Rain Light Rain
12:53 AM 64.0 °F 60.1 °F 87% 30.22 in 4.0 mi ENE 9.2 mph - 0.08 in Rain Light Rain
1:53 AM 66.0 °F 61.0 °F 84% 30.20 in 10.0 mi ENE 11.5 mph - 0.06 in   Overcast
2:53 AM 64.9 °F 61.0 °F 87% 30.19 in 10.0 mi ENE 16.1 mph 24.2 mph 0.03 in   Overcast
3:53 AM 64.9 °F 60.1 °F 84% 30.19 in 10.0 mi ENE 9.2 mph - 0.01 in   Overcast
4:53 AM 64.0 °F 61.0 °F 90% 30.19 in 6.0 mi NE 9.2 mph - N/A   Overcast
5:53 AM 64.9 °F 62.1 °F 90% 30.19 in 10.0 mi ENE 6.9 mph - N/A   Overcast
6:53 AM 66.9 °F 61.0 °F 81% 30.20 in 10.0 mi NE 9.2 mph - N/A   Overcast
7:53 AM 66.9 °F 61.0 °F 81% 30.22 in 10.0 mi NE 9.2 mph - N/A   Mostly Cloudy
8:53 AM 70.0 °F 63.0 °F 78% 30.23 in 10.0 mi NNE 8.1 mph - N/A   Mostly Cloudy
9:53 AM 72.0 °F 62.1 °F 71% 30.25 in 10.0 mi ENE 10.4 mph - N/A   Mostly Cloudy
10:53 AM 73.9 °F 63.0 °F 68% 30.23 in 10.0 mi ENE 13.8 mph - N/A   Overcast
11:53 AM 73.0 °F 64.0 °F 73% 30.22 in 10.0 mi ENE 11.5 mph 23.0 mph N/A   Mostly Cloudy
12:53 PM 73.9 °F 63.0 °F 68% 30.18 in 10.0 mi NE 11.5 mph - N/A   Overcast
1:53 PM 71.1 °F 63.0 °F 75% 30.15 in 10.0 mi ENE 9.2 mph - 0.00 in   Overcast
2:46 PM 68.0 °F 64.4 °F 88% 30.15 in 3.0 mi NE 10.4 mph - 0.00 in Rain Light Rain
2:50 PM 68.0 °F 64.4 °F 88% 30.15 in 3.0 mi NE 8.1 mph - 0.01 in Rain Light Rain
2:53 PM 69.1 °F 64.9 °F 87% 30.14 in 5.0 mi NE 9.2 mph - 0.01 in Rain Light Rain
3:00 PM 69.8 °F 64.4 °F 83% 30.14 in 8.0 mi NE 12.7 mph - 0.00 in Rain Light Rain
3:53 PM 69.1 °F 64.0 °F 84% 30.14 in 9.0 mi NE 8.1 mph - 0.00 in Rain Light Rain
4:53 PM 68.0 °F 64.0 °F 87% 30.14 in 10.0 mi NE 4.6 mph - 0.00 in Rain Light Rain
5:53 PM 68.0 °F 64.9 °F 90% 30.14 in 5.0 mi ENE 3.5 mph - 0.00 in Rain Light Rain
6:01 PM 68.0 °F 64.4 °F 88% 30.15 in 5.0 mi East 8.1 mph - 0.00 in   Overcast
6:53 PM 69.1 °F 64.9 °F 87% 30.16 in 10.0 mi NE 8.1 mph - 0.00 in   Overcast
7:12 PM 68.0 °F 64.4 °F 88% 30.16 in 2.5 mi ESE 9.2 mph 17.3 mph 0.02 in Rain Rain
7:26 PM 66.2 °F 64.4 °F 94% 30.17 in 4.0 mi East 6.9 mph - 0.07 in Rain Light Rain
7:36 PM 66.2 °F 64.4 °F 94% 30.17 in 4.0 mi East 4.6 mph - 0.07 in Rain Light Rain
7:53 PM 66.9 °F 64.9 °F 93% 30.17 in 6.0 mi Calm Calm - 0.09 in Rain Light Rain
8:05 PM 66.2 °F 64.4 °F 94% 30.18 in 3.0 mi Calm Calm - 0.00 in Rain Light Rain
8:13 PM 66.2 °F 64.4 °F 94% 30.18 in 2.5 mi Calm Calm - 0.02 in Rain Rain
8:46 PM 66.2 °F 64.4 °F 94% 30.18 in 2.5 mi NE 5.8 mph - 0.09 in Rain Light Rain
8:53 PM 66.0 °F 64.9 °F 96% 30.17 in 2.5 mi NE 4.6 mph - 0.09 in   Overcast
8:58 PM 66.2 °F 64.4 °F 94% 30.18 in 5.0 mi Calm Calm - N/A   Overcast
9:10 PM 66.2 °F 64.4 °F 94% 30.17 in 8.0 mi NNE 3.5 mph - N/A   Overcast
9:21 PM 66.2 °F 64.4 °F 94% 30.17 in 10.0 mi North 6.9 mph - N/A   Overcast
9:34 PM 66.2 °F 64.4 °F 94% 30.17 in 10.0 mi North 8.1 mph - N/A   Overcast
9:48 PM 66.2 °F 64.4 °F 94% 30.16 in 10.0 mi North 6.9 mph - N/A   Overcast
9:53 PM 66.9 °F 64.9 °F 93% 30.16 in 10.0 mi North 5.8 mph - N/A   Overcast
10:32 PM 66.2 °F 64.4 °F 94% 30.16 in 10.0 mi North 5.8 mph - N/A   Overcast
10:53 PM 66.0 °F 64.0 °F 93% 30.15 in 10.0 mi North 5.8 mph - N/A   Overcast
11:53 PM 64.9 °F 64.0 °F 97% 30.13 in 9.0 mi North 4.6 mph - N/A   Overcast